ECMWFNIL_850_spd_198.txt.gz
Wind_Speed
35 35 33 31 29 29 31 31 30 30 33 33 32 37 40 39 37 35 34 34 33 34 36 40 40 37 34 32 31 31 32 31 31 32 33 34 34 37 41 41 37 33
33 34 34 32 28 25 26 28 26 27 32 36 34 36 40 41 38 34 32 31 31 32 34 38 40 39 37 35 33 33 32 32 32 32 33 33 33 35 39 41 39 34
32 32 34 34 29 22 22 24 25 26 30 33 35 37 40 42 41 36 31 28 29 31 32 35 38 40 39 37 35 35 34 34 33 34 34 34 32 32 35 39 39 35
32 32 33 33 29 25 25 25 26 27 28 31 35 38 38 39 40 36 31 27 28 30 32 34 36 38 39 39 38 36 36 36 35 34 35 35 34 33 33 36 39 37
33 33 33 32 30 27 28 29 30 30 30 32 37 38 37 37 37 36 32 27 26 30 33 35 37 38 38 38 39 39 38 38 37 37 37 37 36 36 35 35 38 39
33 34 34 33 31 30 30 32 33 33 32 35 37 36 35 35 36 35 31 26 25 30 33 34 35 38 39 36 36 38 39 40 40 39 40 40 39 39 38 37 38 39
29 31 32 33 32 31 32 34 35 34 35 36 37 37 36 36 37 34 28 24 26 29 32 33 32 33 35 34 32 32 35 40 41 41 41 42 41 41 41 40 40 40
24 27 30 32 33 33 32 33 35 38 39 39 38 38 39 38 38 34 29 29 32 31 32 34 32 29 30 31 30 30 32 37 41 42 43 42 42 43 43 42 42 41
19 22 25 28 31 32 32 32 34 38 40 40 39 39 40 41 38 35 33 34 36 35 35 36 35 32 29 28 28 28 31 34 38 41 44 44 44 45 45 45 43 42
14 15 18 22 26 29 30 30 32 35 38 40 41 41 42 42 41 38 37 37 38 39 40 40 40 38 32 29 27 27 30 34 36 39 42 45 46 46 46 46 45 45
13 14 15 16 19 22 24 27 29 32 35 37 41 43 44 44 43 41 40 41 42 44 46 44 43 43 39 34 32 31 32 34 36 38 40 41 44 47 48 48 48 47
13 14 16 16 17 18 19 20 22 24 25 28 33 37 40 42 42 40 41 43 44 46 49 48 46 45 43 39 36 35 34 34 35 38 39 39 41 45 48 50 51 50
12 13 14 15 17 18 19 19 19 19 18 20 23 27 31 34 36 37 39 42 44 45 47 48 47 46 45 42 39 37 37 36 35 37 39 40 39 40 45 50 52 53
13 13 13 14 15 16 18 19 20 20 19 19 19 21 24 27 30 33 35 38 42 44 46 48 48 47 46 45 44 42 40 40 39 39 40 41 41 40 42 47 51 54
14 15 15 15 16 16 17 18 19 19 20 20 21 21 22 23 25 28 31 34 37 39 43 45 46 46 45 45 46 46 45 45 44 44 43 42 43 43 43 45 48 52
14 16 16 16 17 17 17 18 19 19 19 20 21 22 23 23 23 25 28 32 35 37 39 42 44 45 45 45 46 47 47 48 48 48 47 46 46 46 46 46 47 50
15 16 18 18 19 19 19 19 20 19 19 19 20 22 23 23 24 25 26 29 32 35 38 41 43 45 46 46 45 45 46 47 49 50 50 50 49 48 47 46 46 47
15 17 18 19 20 20 21 21 22 22 22 21 22 22 23 24 25 26 27 28 29 32 36 39 42 43 44 45 45 44 44 45 48 50 51 51 51 49 46 45 46 47
17 17 17 18 19 20 21 22 23 25 25 25 26 25 26 27 27 27 28 29 30 31 33 36 38 40 41 42 43 43 42 42 44 48 50 51 51 50 48 46 48 51
18 19 19 20 20 21 22 23 23 25 27 28 29 29 29 29 30 30 30 30 31 32 32 34 36 37 38 39 41 41 41 41 42 45 49 51 52 53 53 49 48 50
22 23 23 23 24 25 25 26 26 27 28 29 30 31 31 31 31 32 33 33 34 33 33 34 34 35 36 37 39 41 42 43 45 47 49 51 53 55 54 50 47 47
25 26 27 27 28 28 29 30 30 31 31 32 33 34 34 33 31 31 32 35 36 36 37 37 35 34 34 36 38 40 43 45 46 47 49 52 54 54 53 50 47 48
27 28 30 30 31 31 32 32 32 33 33 33 35 37 38 38 36 33 32 33 36 38 39 41 40 37 35 36 37 39 42 45 47 48 49 52 53 54 52 51 50 50
28 29 31 32 33 33 33 33 32 32 32 32 34 36 38 40 41 39 36 34 35 37 39 42 44 43 40 38 38 39 41 44 47 50 52 52 53 54 54 54 53 52
30 30 32 33 34 34 33 33 32 32 32 32 33 35 37 38 40 43 43 40 37 37 38 41 45 47 45 43 40 39 40 43 46 50 54 55 55 56 56 57 56 55
30 31 31 32 33 33 32 32 32 32 33 33 35 36 37 37 38 40 43 45 43 41 41 41 44 47 48 48 45 42 41 42 45 50 53 55 56 57 57 58 58 57

ECMWFNIL_850_spd_204.txt.gz
Wind_Speed
25 26 28 29 30 31 30 30 30 30 29 30 30 30 28 25 22 20 20 20 20 21 22 23 23 22 21 21 21 21 20 20 21 22 22 22 23 23 24 24 24 24
23 24 25 26 28 30 29 30 31 31 29 30 31 30 29 27 24 23 23 24 24 24 24 25 25 25 24 23 23 24 23 22 22 22 23 23 24 24 24 24 24 24
21 23 24 24 25 27 28 28 30 29 28 30 32 32 29 26 26 26 27 26 26 26 26 26 26 25 26 25 24 26 25 23 22 22 22 22 23 24 25 24 25 25
20 21 23 24 23 25 27 27 26 26 26 27 30 31 30 26 26 28 28 26 26 26 27 27 26 25 26 26 26 26 25 23 20 19 21 21 21 23 25 25 26 26
18 19 21 23 23 24 26 25 24 24 26 27 27 29 31 29 26 28 29 27 26 27 27 27 27 26 26 26 26 25 24 22 20 19 20 21 21 22 24 25 26 27
15 16 18 20 21 22 23 23 23 23 25 26 25 27 30 30 27 29 30 29 28 28 27 27 26 26 26 26 26 25 24 23 21 20 21 22 22 22 23 25 27 27
11 13 14 16 17 18 20 21 23 24 24 24 24 26 28 29 28 29 30 31 31 30 28 28 27 26 26 27 26 25 24 24 23 22 22 22 23 22 23 26 28 27
6 8 10 12 13 14 15 17 20 23 24 24 25 26 28 28 29 30 31 32 32 30 29 29 29 28 28 29 28 25 24 24 24 23 23 23 23 23 23 25 28 29
4 4 6 8 10 10 11 13 16 19 21 23 25 26 28 29 30 31 32 33 33 31 30 30 30 30 30 30 30 27 26 25 24 24 24 24 24 24 23 25 28 30
4 4 4 6 7 8 9 10 12 14 18 21 23 25 27 28 30 31 32 32 32 31 31 30 31 31 31 31 30 28 27 26 26 26 25 25 25 25 25 26 28 30
5 4 5 6 7 7 8 9 10 11 14 17 20 22 24 25 26 27 28 30 31 31 31 30 31 31 31 31 30 28 27 27 27 28 27 27 26 26 27 28 28 30
8 6 6 6 7 8 9 10 11 12 13 15 17 19 20 21 22 23 25 26 28 29 28 28 29 29 30 30 30 29 28 28 29 29 29 29 28 28 29 29 30 30
12 11 9 8 8 8 9 10 12 13 14 15 16 18 18 20 21 22 23 24 25 26 26 26 26 27 27 28 29 30 30 30 30 31 31 31 31 31 31 32 32 32
14 14 13 12 12 11 11 11 12 13 14 15 16 16 17 19 20 21 22 23 24 25 26 26 25 26 26 27 28 30 31 31 32 32 32 33 34 34 34 35 35 34
14 15 16 15 15 15 15 14 14 14 15 16 16 16 17 18 19 20 21 22 23 24 25 26 26 27 27 28 29 31 32 32 33 33 32 33 34 35 36 37 37 37
15 16 17 17 18 19 19 19 19 19 19 19 19 18 19 19 20 20 21 22 23 23 24 25 26 27 28 28 30 31 32 33 33 33 33 33 33 35 36 37 39 39
15 16 18 18 19 20 21 22 23 23 24 24 24 23 23 23 23 23 23 23 24 24 25 26 27 28 28 29 29 30 31 32 33 34 34 34 34 35 37 38 39 41
14 17 18 20 21 22 23 24 26 26 27 28 28 28 28 28 28 27 27 27 27 28 28 28 28 28 28 29 30 30 31 31 33 34 34 35 36 37 38 39 40 40
12 15 17 19 22 23 25 26 27 28 29 30 31 32 32 32 32 32 32 31 32 32 33 33 32 31 30 30 30 31 31 32 33 33 34 35 36 37 39 40 41 41
13 13 14 16 19 22 24 26 28 29 30 31 32 33 34 34 34 35 35 35 35 36 36 36 36 35 34 34 33 33 33 33 34 34 35 35 37 38 39 40 41 41
16 15 15 15 16 18 21 23 25 27 28 29 31 32 32 33 33 34 34 35 35 36 38 39 38 37 37 37 37 37 37 37 38 37 38 38 38 39 39 40 41 41
19 19 19 18 18 18 19 20 22 23 24 26 27 28 29 29 29 30 31 31 32 32 34 36 36 36 36 36 36 37 39 41 42 43 43 42 41 41 41 41 41 42
21 21 21 21 21 21 21 21 21 22 22 23 25 26 27 27 27 28 28 29 30 30 31 33 33 32 32 32 33 34 36 39 42 45 47 48 47 45 44 43 43 43
23 23 23 24 23 23 23 23 23 23 22 22 23 25 25 26 26 27 28 29 30 30 31 32 32 31 31 32 34 35 37 39 41 43 47 49 51 51 49 48 48 47
24 24 25 25 24 24 24 24 24 23 22 22 23 24 24 25 26 27 28 28 28 28 28 29 32 33 34 37 39 40 41 42 43 45 47 49 51 53 54 53 52 51
26 26 26 25 24 24 25 24 23 22 22 21 22 22 23 24 25 25 25 25 23 24 26 30 34 38 40 42 43 43 44 44 44 46 47 49 50 52 54 55 55 54

ECMWFNIL_850_spd_210.txt.gz
Wind_Speed
20 21 24 26 24 20 18 19 19 18 18 19 20 19 18 18 18 18 17 16 16 18 21 22 21 20 19 20 21 20 20 20 20 19 18 18 18 17 17 17 16 15
20 21 22 23 21 17 17 18 18 18 20 21 21 20 20 21 21 21 20 19 17 18 20 23 22 21 21 20 19 20 20 19 20 20 19 19 19 18 18 17 17 17
18 18 17 17 17 17 17 18 17 17 19 19 19 20 21 22 23 23 23 22 20 20 21 22 23 22 21 21 20 20 20 20 21 21 21 20 19 19 18 18 17 17
16 15 15 15 16 17 17 17 17 18 19 19 20 21 21 23 24 24 24 24 23 22 21 22 22 22 22 22 22 21 21 21 22 23 23 22 21 21 20 19 18 17
11 13 14 15 17 19 19 19 18 18 19 20 21 21 20 21 23 24 25 26 25 24 22 21 21 21 21 21 21 22 22 22 22 22 21 21 21 22 21 20 20 19
5 8 11 13 16 18 18 18 17 17 19 22 22 21 21 20 20 20 21 24 26 25 24 23 22 22 22 22 21 23 24 24 22 19 18 19 19 20 19 18 18 18
1 3 5 7 9 11 13 14 16 17 18 21 22 23 24 22 21 19 17 20 24 26 25 25 24 23 23 23 23 23 24 24 23 21 20 20 20 20 19 17 17 17
2 1 2 4 5 7 8 10 12 14 16 17 19 21 23 23 23 20 16 18 21 22 23 24 25 23 21 22 22 22 22 22 23 23 22 22 22 21 20 19 18 18
3 2 2 3 5 7 7 8 9 11 13 14 14 15 17 19 22 20 18 20 21 20 22 24 24 23 21 21 20 20 21 21 21 22 23 23 24 23 23 21 21 21
3 3 3 3 4 5 7 7 7 8 9 10 11 12 13 14 17 19 20 21 21 21 21 23 24 22 21 20 20 21 21 20 21 22 23 24 24 24 24 24 23 23
6 6 6 5 4 5 5 6 7 7 8 8 8 10 11 12 14 17 18 19 20 20 20 21 23 22 21 21 22 22 21 21 21 22 23 24 25 24 24 24 24 24
10 9 9 9 8 8 7 6 7 7 8 9 9 9 10 10 11 13 15 17 18 19 19 20 21 21 20 20 21 21 21 21 20 21 22 24 25 25 24 23 22 22
11 12 12 11 11 11 10 10 9 9 9 9 10 10 10 11 11 12 13 15 16 17 18 18 19 19 18 19 19 20 20 20 20 20 21 22 24 25 26 26 24 23
7 10 12 13 13 13 13 13 13 13 13 12 12 12 12 13 14 14 14 14 15 15 16 17 18 18 17 17 18 19 19 20 20 20 20 20 21 22 24 26 27 27
6 6 8 12 14 15 16 16 15 15 16 15 15 15 15 16 16 17 17 17 17 17 17 17 18 17 16 17 17 17 17 18 18 18 19 20 21 21 22 23 24 26
9 8 6 7 10 13 16 17 18 19 18 18 18 18 19 19 19 19 20 20 20 19 19 20 20 19 19 19 18 18 18 18 18 19 19 20 21 21 21 22 23 24
10 9 9 9 9 10 12 15 17 19 20 21 22 22 22 22 22 22 22 23 23 23 23 23 23 23 24 23 22 21 22 22 21 21 21 21 22 23 23 23 23 24
11 10 10 10 10 10 11 11 13 15 17 19 22 24 26 26 27 27 26 26 26 26 26 27 27 26 27 26 25 25 25 25 25 24 24 23 23 24 24 24 24 24
12 11 11 10 9 9 10 10 10 11 12 13 16 19 21 22 24 27 29 30 31 31 30 30 30 30 29 28 27 27 27 28 28 28 28 27 26 26 26 26 25 25
14 13 12 11 9 9 10 10 10 11 10 10 11 13 14 14 17 19 20 23 27 30 33 33 33 32 32 31 30 30 31 31 31 31 32 32 32 31 31 31 31 30
15 14 13 12 10 9 10 10 10 10 11 10 11 11 12 12 14 14 13 14 17 21 26 30 32 31 31 30 30 31 32 33 34 34 35 35 35 35 35 35 36 35
16 16 15 14 12 10 10 10 10 10 10 11 11 12 12 13 15 16 15 14 14 14 17 22 26 26 26 25 25 26 28 30 31 32 32 32 32 33 33 34 34 35
17 17 16 15 14 12 11 11 11 11 10 10 11 12 13 14 15 16 17 17 17 15 14 15 18 21 23 22 22 23 25 26 27 27 26 26 26 27 28 29 31 32
16 16 16 16 14 12 12 12 11 11 10 11 12 13 14 14 14 14 14 15 16 15 14 15 16 18 20 20 20 22 23 24 23 23 22 22 23 24 26 27 30 31
15 15 15 15 14 12 11 12 12 11 12 13 14 14 13 12 11 11 12 13 14 15 16 18 18 16 15 16 18 19 20 21 20 19 20 21 21 22 24 26 29 32
14 13 12 12 12 11 11 12 12 11 12 14 14 13 12 11 10 10 11 12 13 13 14 15 16 14 13 14 16 17 17 18 18 18 19 19 19 20 22 24 27 30

ECMWFNIL_850_spd_216.txt.gz
Wind_Speed
14 18 19 19 18 18 19 17 16 16 16 17 17 17 17 16 15 16 17 19 21 22 19 18 17 17 18 19 20 21 21 21 21 21 21 21 21 20 21 22 22 22
15 19 19 18 17 17 18 17 16 16 16 16 16 15 15 14 13 15 18 20 20 20 19 18 18 18 18 19 20 21 22 23 22 21 22 23 22 22 22 23 23 24
12 18 19 18 18 19 18 18 18 18 18 17 17 16 16 16 14 13 16 20 20 19 18 18 18 18 18 19 20 22 23 24 24 23 23 23 24 24 23 23 24 25
6 12 17 18 19 20 19 19 19 19 19 18 17 17 18 18 17 15 16 19 19 19 19 20 20 19 20 20 21 23 24 25 26 24 23 24 25 24 24 24 26 27
2 6 9 12 17 20 20 20 21 21 20 19 18 18 19 20 21 20 20 20 21 21 22 23 22 21 22 22 21 22 24 26 27 25 22 22 23 23 23 24 25 26
1 3 5 7 12 18 20 21 22 22 21 20 20 20 21 23 24 24 24 24 23 23 23 24 24 23 23 22 22 23 24 25 27 25 23 22 22 23 23 23 24 25
5 4 3 5 9 12 15 18 20 21 22 21 19 19 20 23 26 25 24 25 26 26 25 25 26 25 23 21 22 25 26 27 27 26 25 24 24 23 23 24 25 26
7 7 6 3 3 6 8 10 13 15 19 21 21 20 20 21 24 24 21 23 25 26 26 26 25 24 22 20 21 23 26 27 27 26 27 27 25 24 24 24 25 26
7 7 8 7 5 4 5 4 4 6 9 13 16 18 18 18 19 20 20 21 23 23 23 22 21 21 20 19 19 21 23 24 25 25 26 26 25 24 24 23 23 25
6 5 4 7 6 5 5 5 3 4 5 3 4 8 9 11 14 16 17 17 18 19 18 18 18 18 19 19 19 20 21 23 23 22 23 25 24 24 24 23 23 24
5 5 2 3 4 2 4 5 2 5 7 4 2 3 2 4 6 9 11 13 14 15 16 17 17 17 18 19 19 19 19 20 21 20 22 23 23 23 24 24 24 24
2 2 1 2 1 1 2 2 1 3 5 4 5 6 4 1 2 3 4 6 9 11 12 14 15 16 16 16 16 17 18 18 18 18 20 21 21 21 21 22 23 24
3 1 1 1 1 1 1 1 3 3 3 4 5 6 5 4 3 1 1 2 2 4 7 9 11 13 13 13 15 16 17 17 17 17 19 21 21 21 21 21 22 23
5 4 4 3 2 2 2 4 4 4 6 7 8 7 8 8 7 7 7 5 3 2 3 5 8 10 12 13 14 16 16 17 17 18 19 20 20 21 21 22 22 23
6 7 7 5 5 4 4 4 4 5 7 8 9 9 9 11 12 12 11 10 8 6 4 4 5 7 9 11 12 14 15 15 15 16 17 18 20 21 21 22 22 22
7 7 6 5 5 5 5 5 3 5 5 4 5 7 9 12 15 15 14 13 12 11 10 8 7 8 10 12 13 14 15 15 15 16 16 17 19 20 20 20 21 21
7 7 6 5 5 5 6 6 5 5 4 3 4 6 9 11 12 13 14 14 14 14 13 12 11 12 14 15 17 17 17 18 17 18 18 19 19 20 21 21 20 20
7 7 6 6 6 6 6 7 8 7 6 8 8 8 9 9 8 9 10 11 11 11 12 12 12 14 15 17 20 21 22 22 22 22 23 22 23 23 23 23 23 23
7 6 6 7 7 6 5 6 7 8 10 12 11 10 10 9 8 9 8 9 10 10 9 8 8 12 15 17 20 22 24 25 26 27 27 27 27 27 27 27 26 26
7 6 6 6 6 6 5 4 6 9 12 14 13 12 11 11 11 11 9 10 12 13 12 9 6 9 13 16 19 21 24 26 27 29 30 31 31 30 30 30 30 29
6 7 6 6 7 7 6 6 9 11 12 13 13 12 12 12 12 11 11 12 12 12 11 9 8 9 11 13 16 18 21 23 25 26 28 29 29 28 27 27 28 28
6 6 7 7 7 7 8 10 12 12 12 13 12 11 11 11 10 9 9 10 10 9 8 6 7 10 12 14 16 18 19 21 22 23 23 21 19 17 16 17 18 18
5 6 7 7 7 7 10 12 13 13 12 12 11 10 9 9 8 8 8 8 8 8 6 6 9 12 13 15 17 19 19 20 21 22 17 11 10 10 10 10 10 11
5 5 6 6 6 9 12 11 11 11 10 10 10 9 10 10 9 9 9 9 8 9 9 9 8 9 12 14 17 18 18 19 20 19 11 6 7 7 7 7 7 8
5 5 7 6 5 10 12 10 8 8 10 10 10 9 9 10 10 10 10 11 11 11 11 12 11 9 9 11 13 15 15 16 17 15 9 6 8 11 11 11 11 12
4 6 7 5 6 10 11 8 6 7 9 10 10 9 10 11 11 11 11 12 12 13 13 14 14 12 12 12 13 14 15 16 17 16 13 12 12 13 13 14 15 15

ECMWFNIL_850_spd_222.txt.gz
Wind_Speed
23 26 27 26 24 23 24 24 25 26 27 27 26 26 24 22 22 23 25 26 23 21 22 23 22 22 21 20 19 19 19 19 20 20 18 18 19 19 19 19 19 17
20 22 23 22 21 22 23 23 24 23 23 24 24 22 21 22 22 22 23 24 24 23 23 23 23 22 22 21 19 19 19 19 20 21 20 19 18 19 20 20 20 18
17 19 21 22 21 21 22 22 22 20 19 21 21 20 19 21 22 22 23 23 24 25 25 25 25 24 23 23 22 21 20 19 20 21 21 21 20 20 21 21 20 19
14 16 19 20 20 19 20 20 19 19 18 17 18 18 18 19 20 19 20 22 23 25 26 27 29 28 26 26 25 24 21 20 21 21 22 22 22 22 22 22 21 20
10 12 14 15 17 18 19 19 19 19 19 17 17 17 17 17 16 16 18 21 21 22 24 28 30 29 27 26 26 26 23 22 21 21 21 20 20 21 21 21 21 20
6 8 9 12 16 17 18 19 18 17 17 17 16 16 16 15 14 15 18 21 23 25 26 27 28 26 25 24 24 24 24 22 21 19 19 18 18 19 19 19 20 20
4 5 9 12 15 17 17 17 17 17 17 16 16 16 16 15 16 18 20 22 26 28 26 24 23 23 23 23 23 24 23 22 21 20 20 20 20 20 20 20 20 20
2 8 10 13 14 16 16 17 18 18 18 18 18 17 17 19 20 22 22 24 27 27 24 23 22 21 22 23 24 24 24 22 21 21 21 21 21 21 19 19 20 20
7 14 18 19 16 13 13 15 16 16 16 18 20 20 21 22 22 22 22 22 22 22 21 21 21 21 22 23 24 25 24 23 21 21 21 20 20 19 17 17 18 17
4 9 16 21 21 19 17 16 16 14 13 15 17 18 17 17 18 17 17 17 17 17 17 18 18 19 20 21 22 23 23 21 20 20 19 18 18 18 17 15 15 15
4 2 7 12 16 18 18 18 18 17 15 15 15 15 13 13 13 13 12 12 13 13 14 15 15 15 16 17 18 19 19 18 17 17 16 16 16 16 16 15 15 14
6 4 2 5 7 10 11 13 15 16 16 16 16 15 14 13 13 13 12 12 11 11 11 13 13 13 13 14 15 15 15 15 15 15 15 14 14 15 15 15 15 15
6 7 5 3 3 4 5 7 10 11 13 14 14 14 14 14 14 14 13 12 12 12 12 12 12 12 12 12 12 12 13 12 13 13 14 13 13 12 12 13 13 13
3 5 5 4 4 4 5 6 7 8 11 13 13 13 13 13 13 13 12 11 11 11 11 11 12 12 11 11 10 10 10 9 9 10 11 12 12 12 11 12 12 11
3 2 2 2 3 5 6 6 7 8 10 12 13 13 12 11 11 11 10 10 9 8 9 9 9 10 9 8 8 8 8 8 8 9 9 10 11 12 12 12 13 13
3 2 2 2 1 3 5 5 6 7 8 10 10 10 10 10 10 10 10 9 9 8 8 7 7 7 7 7 8 8 8 9 9 9 10 11 11 12 12 12 12 12
1 0 2 2 1 1 3 4 5 6 7 8 9 10 10 10 11 11 12 12 12 11 11 11 10 10 10 10 10 11 12 12 12 13 13 14 14 15 15 15 15 14
1 2 2 3 2 2 3 4 4 4 5 7 8 10 11 11 12 13 13 13 14 13 13 13 12 12 12 12 12 12 13 13 14 15 16 17 18 18 18 19 19 18
2 4 4 4 5 5 6 6 5 4 4 5 6 8 9 10 11 12 13 13 14 14 13 13 13 13 13 13 13 14 14 14 14 15 16 17 18 18 20 21 21 20
3 5 6 7 7 7 7 7 7 6 6 6 6 7 8 9 10 11 12 13 14 14 14 14 14 15 15 15 15 15 15 16 16 16 16 16 16 16 17 18 17 16
4 6 7 8 8 8 8 7 7 7 7 7 7 7 8 9 10 10 11 12 13 13 13 14 14 14 15 16 16 16 16 16 16 17 17 16 15 14 13 13 13 12
5 6 6 7 8 9 9 9 8 8 8 8 8 7 8 8 8 8 9 9 9 9 9 10 11 11 12 12 13 13 14 14 14 14 14 13 12 11 10 11 11 9
6 6 6 6 8 9 8 8 7 7 7 7 7 7 7 6 4 2 1 1 0 1 1 2 3 4 4 5 7 8 9 10 10 10 9 7 7 8 10 10 10 9
6 6 6 6 7 6 4 4 5 6 7 6 5 5 4 3 4 6 6 6 7 7 5 5 4 4 4 5 6 7 7 6 6 6 5 3 3 5 8 9 9 9
7 7 6 4 3 2 4 6 7 8 8 9 9 9 8 9 11 10 9 7 7 7 6 7 8 7 7 8 8 9 9 8 6 6 5 4 2 1 4 7 8 8
7 6 4 1 3 6 8 9 10 10 8 9 11 12 14 15 13 11 8 7 6 6 7 8 8 8 8 8 9 10 9 9 9 8 7 6 4 3 1 3 5 7

ECMWFNIL_850_spd_228.txt.gz
Wind_Speed
13 13 15 17 19 20 22 24 25 25 26 29 37 40 35 31 31 31 31 30 30 29 27 25 23 23 25 26 27 27 25 24 22 20 19 18 17 16 16 16 16 15
11 12 12 14 15 16 18 21 24 25 25 26 32 39 37 30 29 30 31 31 30 30 29 24 22 21 22 24 24 25 25 24 23 20 18 17 16 15 15 14 15 15
12 11 12 12 13 13 14 17 21 24 26 24 26 35 39 33 28 27 29 31 32 30 27 25 22 21 21 22 22 22 23 23 22 20 18 16 15 14 14 13 13 13
12 12 12 13 13 13 14 16 18 22 25 26 25 29 37 36 31 29 29 30 31 28 26 25 24 21 21 21 20 20 22 22 21 18 16 15 14 14 13 12 12 12
13 14 13 13 14 14 15 17 18 19 23 27 26 27 32 34 31 30 30 29 29 27 26 25 24 23 22 21 20 21 22 21 20 17 16 15 14 14 13 13 12 12
13 13 12 12 13 12 12 14 15 17 20 23 25 27 29 30 30 30 31 29 28 26 25 24 24 23 23 23 22 22 22 21 19 18 16 14 14 14 15 15 15 15
13 11 10 9 9 9 10 11 11 14 18 19 22 25 27 29 30 30 30 28 27 25 24 24 24 23 23 23 23 23 22 21 20 19 17 15 14 15 16 16 17 17
13 14 10 7 7 8 9 11 12 13 17 19 20 22 25 27 29 29 28 27 25 25 25 24 23 23 22 22 23 23 23 21 21 20 18 16 14 14 16 17 18 19
14 16 14 9 8 10 11 13 14 13 15 17 19 22 23 25 27 28 27 26 25 24 24 23 23 22 21 21 22 21 20 20 20 19 18 17 16 15 15 17 19 20
14 14 12 8 7 9 11 10 12 14 15 16 17 19 21 23 25 26 25 24 24 23 23 22 21 21 20 20 20 19 18 18 17 17 16 15 16 16 16 19 20 20
13 11 9 7 6 6 7 6 7 10 14 15 16 17 18 20 21 23 23 23 23 21 20 20 20 20 20 20 20 19 18 17 16 15 15 15 16 17 17 18 19 20
10 7 7 7 5 5 5 6 5 5 9 13 14 16 18 19 20 20 21 22 20 19 19 20 20 20 20 20 20 19 18 17 17 17 16 17 17 17 17 18 20 20
7 5 6 5 4 4 5 6 6 4 2 7 10 14 18 21 20 18 18 19 18 19 20 21 21 20 20 19 19 18 18 18 17 16 16 16 16 16 17 18 18 18
3 3 4 4 4 4 5 4 4 4 3 1 5 10 14 18 18 18 18 19 19 20 21 20 19 18 17 17 16 15 15 15 14 13 12 12 12 14 14 14 16 17
3 1 2 3 4 4 5 5 4 2 2 3 3 6 8 10 13 15 16 17 17 18 18 17 16 15 14 13 12 12 11 11 10 9 10 10 11 13 13 14 15 13
4 3 4 4 4 4 3 4 3 2 1 2 3 5 8 9 11 12 12 12 13 14 14 14 15 15 13 10 9 7 6 6 5 6 8 10 11 12 12 12 12 10
3 4 4 4 4 4 3 3 4 4 4 3 3 3 4 6 9 12 12 10 10 11 12 12 12 12 11 9 8 6 5 5 5 6 6 8 9 10 11 13 15 15
3 4 4 5 5 5 4 4 3 5 7 7 6 6 6 6 6 8 9 9 10 10 11 10 9 9 8 8 7 7 7 8 9 10 11 12 13 14 15 16 17 17
3 4 5 6 7 7 6 5 5 5 7 7 7 6 7 7 7 7 9 10 11 11 11 10 9 9 9 9 10 10 11 12 13 14 15 16 17 18 18 18 18 18
5 6 8 9 9 8 7 6 6 6 6 6 6 6 7 8 7 8 9 10 11 11 11 11 11 11 12 12 12 13 14 15 16 17 18 18 19 19 19 19 19 18
7 8 8 9 9 8 6 5 5 5 6 6 7 7 8 9 8 8 9 10 9 10 10 10 10 11 12 13 14 14 15 16 17 17 18 18 18 18 18 17 16 14
7 8 8 8 7 6 4 3 5 6 6 6 7 8 9 9 9 9 9 9 8 8 8 8 9 10 10 11 11 11 12 12 12 12 12 13 13 13 13 12 11 10
7 8 8 7 5 3 2 3 4 6 6 7 8 9 9 9 9 9 8 7 7 6 5 6 6 6 5 5 4 4 4 4 5 5 7 7 8 8 8 8 8 7
7 8 8 5 1 2 3 5 7 8 8 9 9 9 9 9 8 8 8 7 7 8 6 5 5 4 3 1 0 0 0 1 2 3 3 3 3 3 3 3 4 5
6 8 6 2 4 6 7 9 11 12 11 11 10 9 9 9 9 10 11 11 11 11 9 6 5 4 3 3 3 3 3 3 4 4 4 4 5 5 4 5 5 5
6 6 3 3 6 8 10 10 12 14 14 12 11 10 10 11 12 12 13 13 12 11 9 7 5 5 5 5 5 5 5 5 5 5 5 5 6 6 6 6 5 4

ECMWFNIL_850_spd_234.txt.gz
Wind_Speed
8 9 10 11 12 13 14 15 16 18 18 18 18 20 21 23 25 28 30 31 32 32 32 31 30 28 25 22 22 22 20 19 20 20 20 20 19 18 17 15 14 14
8 9 10 10 10 11 12 14 15 16 17 17 18 18 19 21 22 24 28 30 32 34 34 32 30 30 28 26 24 24 23 22 22 22 22 21 20 19 18 16 16 15
7 8 9 10 11 11 12 13 14 15 16 16 17 17 18 21 21 21 24 27 31 34 35 34 33 31 31 30 27 26 25 24 23 23 23 23 22 21 19 18 18 16
6 6 7 9 11 12 12 13 14 14 16 17 17 17 17 18 19 20 22 24 28 32 35 36 35 33 34 33 31 29 27 25 24 24 24 24 24 23 22 21 19 16
5 5 5 7 9 11 13 14 14 14 15 17 18 17 16 16 18 20 22 23 25 28 33 37 37 36 36 34 33 32 29 26 25 24 24 24 23 23 23 22 19 16
5 4 4 5 6 8 10 13 14 15 16 17 17 16 15 16 18 20 22 24 25 25 29 35 38 40 38 36 35 33 30 27 25 24 24 23 23 22 23 21 18 16
7 6 6 6 5 5 7 8 10 13 14 15 16 16 15 15 17 19 22 24 25 25 26 30 37 42 41 38 36 34 32 30 27 26 25 24 24 23 22 20 18 17
8 8 8 9 8 6 6 6 7 10 12 13 15 16 15 15 16 17 20 22 24 25 26 28 34 40 42 39 37 35 33 32 30 27 25 25 25 24 22 20 19 19
9 9 10 11 10 8 8 8 8 9 10 11 13 14 14 15 16 16 18 21 24 26 27 29 33 37 39 36 36 36 34 32 31 28 26 25 25 23 21 21 21 20
10 10 10 10 10 9 8 9 9 8 7 7 9 11 12 14 14 15 18 21 24 26 28 30 33 36 36 31 31 36 35 32 30 28 27 25 23 21 20 20 22 22
10 10 10 10 10 8 8 8 8 7 7 6 6 8 11 13 14 16 18 21 24 27 28 29 31 37 38 32 30 34 34 30 28 27 27 25 22 21 20 21 23 23
10 10 10 10 10 9 7 7 8 7 6 6 6 7 10 13 15 17 19 20 23 26 28 28 30 37 39 32 31 33 31 29 28 27 28 26 25 24 23 23 25 24
9 9 9 9 10 8 6 5 6 7 5 4 5 7 9 11 14 17 19 20 23 26 27 27 29 34 35 31 30 31 30 30 29 29 28 27 26 27 25 24 25 23
8 7 7 7 7 6 4 3 3 5 5 5 5 6 7 8 10 13 16 19 22 25 26 26 28 32 33 30 29 30 29 29 29 28 27 26 26 25 23 22 22 19
6 5 5 5 5 5 4 4 4 4 5 6 6 6 7 8 8 9 11 15 20 24 24 22 24 30 32 30 29 29 28 27 27 27 27 25 24 22 20 20 21 19
6 5 5 5 4 4 4 4 4 5 5 6 7 7 8 9 9 9 11 12 19 23 24 23 24 27 31 31 29 29 28 28 27 26 26 26 25 22 19 20 22 23
5 6 5 5 5 5 6 6 6 6 5 5 8 9 7 9 9 11 14 10 16 21 20 23 26 28 30 32 31 30 29 29 27 25 24 24 25 24 23 23 25 25
5 5 6 7 7 8 9 9 9 8 6 6 11 11 6 6 8 10 13 7 8 16 18 20 23 26 28 30 31 31 30 29 27 26 24 22 21 24 26 25 25 22
6 6 6 7 8 9 11 11 10 9 8 7 11 11 6 3 4 6 9 11 8 3 12 18 21 23 25 28 31 32 31 29 29 28 27 25 23 23 24 23 20 18
6 7 7 8 9 10 11 10 10 10 8 7 9 10 6 3 2 5 7 9 10 7 2 11 16 18 19 22 26 26 24 25 27 28 28 27 24 22 22 21 18 16
7 7 7 8 10 12 11 9 10 10 7 5 7 8 5 3 3 3 6 7 6 5 4 5 11 14 14 14 17 18 19 20 21 22 23 22 20 18 18 17 16 15
7 7 7 8 10 12 10 8 10 10 6 4 6 7 5 4 4 2 2 5 5 4 4 3 4 9 10 10 13 17 18 18 17 17 17 17 16 15 14 14 14 14
7 7 8 10 11 10 9 8 9 8 5 4 5 6 6 5 5 4 2 2 3 3 5 7 4 0 4 8 9 11 13 14 14 14 13 13 14 14 14 14 13 13
7 7 8 10 9 8 8 8 7 5 3 2 3 4 6 6 6 5 4 4 7 9 9 9 7 6 4 4 5 6 7 9 11 12 12 13 13 13 14 13 11 10
7 6 8 9 6 5 5 4 3 2 2 2 3 4 6 7 6 5 5 5 8 11 10 8 6 5 4 4 4 6 7 7 8 8 10 11 9 8 11 13 11 10
8 6 7 6 4 3 2 1 1 1 2 3 3 3 5 7 6 5 5 5 7 8 7 6 4 3 3 4 5 7 8 8 7 7 8 9 8 8 10 13 14 13